This is the latest recevied weather packets stored in our database for station/object W0SS-13. If no packets are shown the sender has not sent any weather packets the latest 10 day(s).
| Time | Temp. | Humidity | Pressure | Rain* | Wind** | Luminosity | Snow |
|---|---|---|---|---|---|---|---|
| 1777041063 | 13.33° C | 73% | 1010.1 hPa | 0 mm | - | 405 W/m² | - |
| 1777040758 | 12.78° C | 74% | 1010.3 hPa | 0 mm | - | 390 W/m² | - |
| 1777040458 | 12.78° C | 74% | 1010.1 hPa | 0 mm | - | 374 W/m² | - |
| 1777040154 | 12.78° C | 73% | 1010.2 hPa | 0 mm | - | 359 W/m² | - |
| 1777039849 | 12.78° C | 74% | 1010.2 hPa | 0 mm | - | 344 W/m² | - |
| 1777039544 | 12.22° C | 74% | 1010 hPa | 0 mm | - | 327 W/m² | - |
| 1777039239 | 12.22° C | 75% | 1010 hPa | 0 mm | - | 311 W/m² | - |
| 1777038933 | 12.22° C | 76% | 1010 hPa | 0 mm | - | 294 W/m² | - |
| 1777038630 | 12.22° C | 76% | 1009.9 hPa | 0 mm | - | 277 W/m² | - |
| 1777038325 | 12.22° C | 76% | 1009.8 hPa | 0 mm | - | 262 W/m² | - |
| 1777038021 | 11.67° C | 76% | 1009.6 hPa | 0 mm | - | 245 W/m² | - |
| 1777037716 | 11.67° C | 76% | 1009.5 hPa | 0 mm | - | 228 W/m² | - |
| 1777037412 | 11.67° C | 76% | 1009.5 hPa | 0 mm | - | 226 W/m² | - |
| 1777037110 | 11.67° C | 76% | 1009.2 hPa | 0 mm | - | 218 W/m² | - |
| 1777036806 | 11.67° C | 76% | 1009.3 hPa | 0 mm | - | 210 W/m² | - |
| 1777036503 | 11.67° C | 77% | 1009.1 hPa | 0 mm | - | 191 W/m² | - |
| 1777036201 | 11.11° C | 77% | 1009.1 hPa | 0 mm | - | 174 W/m² | - |
| 1777035899 | 11.11° C | 78% | 1009.3 hPa | 0 mm | - | 155 W/m² | - |
| 1777035594 | 11.11° C | 78% | 1008.9 hPa | 0 mm | - | 124 W/m² | - |
| 1777035289 | 11.11° C | 79% | 1009 hPa | 0 mm | - | 85 W/m² | - |
| 1777034984 | 11.11° C | 80% | 1008.9 hPa | 0 mm | - | 71 W/m² | - |
| 1777034683 | 11.11° C | 81% | 1008.6 hPa | 0 mm | - | 57 W/m² | - |
| 1777034379 | 10.56° C | 81% | 1008.4 hPa | 0 mm | - | 45 W/m² | - |
| 1777034077 | 10.56° C | 81% | 1008.6 hPa | 0 mm | - | 39 W/m² | - |
| 1777033771 | 10.56° C | 82% | 1008.5 hPa | 0 mm | - | 29 W/m² | - |
* Rain latest hour (hover to see other rain measurements)
** Current wind speed in m/s (hover to see current wind gust speed)